McCook, NE

6:38 PM CDT on August 27, 2016 (GMT -0500)
McCook Municipal

Weather History for KMCK - January, 2015

Change the Weather History Date:

Saturday, January 10, 2015

  Actual Average Record
Temperature  
Mean Temperature 30 °F 27 °F  
Max Temperature 41 °F 40 °F 75 °F (1990)
Min Temperature 18 °F 14 °F -11 °F (1957)
Degree Days  
Heating Degree Days 36    
Moisture  
Dew Point 18 °F    
Average Humidity 71    
Maximum Humidity 85    
Minimum Humidity 49    
Precipitation  
Precipitation 0.00 in 0.02 in 0.17 in (1993)
Month to date precipitation 0.01 0.18  
Year to date precipitation 0.01 0.18  
Sea Level Pressure  
Sea Level Pressure 30.11 in    
Wind  
Wind Speed 7 mph (SW)    
Max Wind Speed 15 mph    
Max Gust Speed -    
Visibility 10 miles    
Events      
T = Trace of Precipitation, MM = Missing Value Source: NWS Daily Summary

Daily Weather History Graph

Daily Weather History Graph

Search for Another Location

Airport or City:

Trip Planner

Search our weather history database for the weather conditions in past years. The results will help you decide how hot, cold, wet, or windy it might be!

Date:

Astronomy

Jan. 10, 2015 Rise Set
Actual Time 8:04 AM CST 5:35 PM CST
Civil Twilight 7:34 AM CST 6:05 PM CST
Nautical Twilight 7:00 AM CST 6:39 PM CST
Astronomical Twilight 6:27 AM CST 7:12 PM CST
Moon 11:06 PM CST (1/10) 10:50 AM CST (1/10)
Length of Visible Light 10h 31m
Length of Day
9h 31m
Waning Gibbous, 74% of the Moon is Illuminated
Jan 10
Waning Gibbous
Jan 13
Last Quarter
Jan 20
New
Jan 26
First Quarter
Feb 3
Full

Hourly Weather History & Observations

Time (CST) Temp. Windchill Dew Point Humidity Pressure Visibility Wind Dir Wind Speed Gust Speed Precip Events Conditions
12:53 AM 18.0 °F 7.7 °F 9.0 °F 68% 30.30 in 10.0 mi South 8.1 mph - N/A   Clear
1:53 AM 19.0 °F 9.0 °F 10.9 °F 71% 30.27 in 10.0 mi SSW 8.1 mph - N/A   Clear
2:53 AM 19.9 °F 10.1 °F 12.9 °F 74% 30.22 in 10.0 mi South 8.1 mph - N/A   Clear
3:53 AM 21.0 °F 9.3 °F 14.0 °F 74% 30.18 in 10.0 mi South 11.5 mph - N/A   Clear
4:53 AM 21.9 °F 8.7 °F 15.1 °F 75% 30.14 in 10.0 mi South 15.0 mph - N/A   Clear
5:53 AM 19.9 °F 9.3 °F 14.0 °F 78% 30.13 in 10.0 mi SSW 9.2 mph - N/A   Clear
6:53 AM 19.0 °F 11.1 °F 14.0 °F 81% 30.12 in 10.0 mi South 5.8 mph - N/A   Clear
7:53 AM 18.0 °F 12.7 °F 12.9 °F 81% 30.12 in 10.0 mi SSW 3.5 mph - N/A   Clear
8:53 AM 21.9 °F 14.5 °F 17.1 °F 82% 30.10 in 10.0 mi SW 5.8 mph - N/A   Clear
9:53 AM 26.1 °F 17.6 °F 19.0 °F 75% 30.10 in 10.0 mi SSW 8.1 mph - N/A   Clear
10:53 AM 33.1 °F 24.9 °F 23.0 °F 66% 30.09 in 10.0 mi SW 10.4 mph - N/A   Clear
11:53 AM 34.0 °F 28.8 °F 23.0 °F 64% 30.07 in 10.0 mi WSW 5.8 mph - N/A   Clear
12:53 PM 39.0 °F 34.0 °F 25.0 °F 57% 30.04 in 10.0 mi WSW 6.9 mph - N/A   Clear
1:53 PM 39.0 °F 32.8 °F 23.0 °F 53% 30.03 in 10.0 mi WNW 9.2 mph - N/A   Clear
2:53 PM 39.9 °F 35.1 °F 24.1 °F 53% 30.01 in 10.0 mi NW 6.9 mph - N/A   Clear
3:53 PM 41.0 °F 38.0 °F 23.0 °F 49% 30.03 in 10.0 mi North 4.6 mph - N/A   Clear
4:53 PM 37.9 °F - 23.0 °F 55% 30.04 in 10.0 mi Calm Calm - N/A   Clear
5:53 PM 30.0 °F 23.2 °F 21.9 °F 72% 30.07 in 10.0 mi NNE 6.9 mph - N/A   Clear
6:53 PM 28.9 °F 23.9 °F 21.0 °F 72% 30.09 in 10.0 mi NNE 4.6 mph - N/A   Clear
7:53 PM 30.0 °F - 21.0 °F 69% 30.10 in 9.0 mi Calm Calm - N/A   Clear
8:53 PM 25.0 °F 19.3 °F 19.0 °F 78% 30.11 in 9.0 mi North 4.6 mph - N/A   Clear
9:53 PM 24.1 °F - 19.0 °F 81% 30.10 in 10.0 mi Calm Calm - N/A   Clear
10:53 PM 24.1 °F 19.7 °F 19.0 °F 81% 30.08 in 9.0 mi NE 3.5 mph - N/A   Clear
11:53 PM 19.9 °F - 16.0 °F 85% 30.07 in 9.0 mi Calm Calm - N/A   Clear